Showing default

NUSAT-26 (M SOMERVILLE), 52184

Orbit data source: Space-Track

NUSAT-26 (M SOMERVILLE), 52184 is a payload satellite owned by URUGUS S.A. (AR) in SSO that was launched on Fri, 01 Apr 2022 UTC via an FALCON 9 launch vehicle from the Air Force Eastern Test Range (AFETR). Payload-class satellites include a variety of spacecraft equipped with specific instruments for various scientific and technological missions. These include communications satellites like Starlink; space stations such as the ISS; scientific satellites like the Hubble; Earth observation satellites from companies like Planet Labs, Umbra, and HawkEye 360; GPS; miniature CubeSats for education and research; and military/defense satellites.

Loading next visibility...
Identifier
52184, 2022-033AD
Orbit
SSO
Country
Flag of UnknownUnknown / ARGN
Related business
Manufacturer
URUGUS S.A.
Mission
Operational Commercial Imaging
Bus & Motor
NEWSAT IV, Unknown motor
Mass
41.5 kg wet, 38.5 kg dry
Launch date (UTC)
2022-04-01 (4 years ago)
Launch vehicle
FALCON 9
Launch site
Air Force Eastern Test Range (AFETR)
Object type
Payload
Rocket body
Debris
Shape & HBR
Box, 1.0 m
Radar Cross Section
0.542 m², Medium (>0.1 m² and < 1m²)

Expand to show TLE details & history
Last TLE update: 8 hours ago

TLE from 8 hours ago
0 NUSAT-26 (M SOMERVILLE)
1 52184U 22033AD  26035.86406983  .00006527  00000-0  18220-3 0  9996
2 52184  97.2473 116.3998 0006374  13.3155 346.8257 15.37042816 84340
Epoch: 2026-02-04T20:44Z
TLE epoch observation values (Epoch: 2026-02-04T20:44:15.633Z)
Latitude
Longitude
30.31012°
Altitude
453.736 km
Speed
7.643 km/s
True Right ascension
07h 45m 35s
True Declination
0° 00' 00"
Sunlit
Object was in full shadow at epoch
Visualization orbit readout
Latitude
Unknown
Longitude
Unknown
Altitude
Unknown
Speed
Unknown
Apparent Right ascension
Unknown
Apparent Declination
Unknown
Sunlit
N/A
Visualization observer readout
Local Sidereal Time
06:58:02
Azimuth
Unknown
Elevation
Unknown
Doppler factor
Unknown
Orbital elements
Apogee altitude
456.149 km
Perigee altitude
447.442 km
Semi-major axis
6,829.933 km
Eccentricity
0.00064
Inclination
97.2473°
RAAN
116.3998°
Arg. of periapsis
13.3155°
True anomaly
346.80904°
Mean anomaly
346.8257°
Eccentric anomaly
346.81737°
Mean motion
3.8452 °/min
Orbital period
93.62 mins
BSTAR
0.0001822
Loading maneuver chart data...
Computing Atmospheric mass density...

Documentation

Showing up to 5 results
|